Overview Statistics Trail Chart Weather Telemetry Raw packets
 

This is the latest recevied weather packets stored in our database for station/object N0HOT. If no packets are shown the sender has not sent any weather packets the latest 10 day(s).

<< 88 89 90 91 92 93 94 >>
Time Temp. Humidity Pressure Rain* Wind** Luminosity Snow
1788002744 17.78° C 87% 1018.1 hPa 1.78 mm - 0 W/m² -
1788002440 17.78° C 86% 1017.8 hPa 1.27 mm - 0 W/m² -
1788002139 17.78° C 86% 1018.1 hPa 3.05 mm - 0 W/m² -
1788001830 17.78° C 86% 1018.1 hPa 1.78 mm - 0 W/m² -
1788001530 17.78° C 86% 1018.1 hPa 0 mm - 0 W/m² -
1788001226 17.78° C 85% 1017.8 hPa 1.27 mm - 0 W/m² -
1788000920 17.78° C 85% 1017.8 hPa 1.27 mm - 0 W/m² -
1788000610 17.78° C 85% 1017.3 hPa 1.78 mm - 0 W/m² -
1788000309 17.78° C 85% 1017.8 hPa 3.05 mm - 0 W/m² -
1788000004 17.78° C 84% 1017.8 hPa 3.05 mm - 0 W/m² -
1787999701 17.78° C 84% 1018.1 hPa 3.05 mm - 0 W/m² -
1787999398 17.78° C 83% 1017.8 hPa 1.27 mm - 0 W/m² -
1787999097 17.78° C 83% 1017.8 hPa 0 mm - 0 W/m² -
1787998792 17.22° C 83% 1017.8 hPa 0 mm - 0 W/m² -
1787998490 17.22° C 83% 1017.3 hPa 0 mm - 0 W/m² -
1787998189 17.22° C 83% 1017.3 hPa 0 mm - 0 W/m² -
1787997884 17.22° C 84% 1017.3 hPa 0 mm - 0 W/m² -
1787997583 17.22° C 84% 1017.3 hPa 0 mm - 0 W/m² -
1787997283 17.22° C 84% 1017 hPa 0 mm - 0 W/m² -
1787996977 17.22° C 84% 1017 hPa 0 mm - 0 W/m² -
1787996672 16.67° C 84% 1017 hPa 0 mm - 0 W/m² -
1787996368 16.67° C 85% 1017 hPa 0 mm - 0 W/m² -
1787996067 16.67° C 86% 1017 hPa 0 mm - 0 W/m² -
1787995762 16.11° C 87% 1017 hPa 0 mm - 0 W/m² -
1787995458 16.11° C 87% 1016.7 hPa 0 mm - 0 W/m² -

* Rain latest hour (hover to see other rain measurements)
** Current wind speed in m/s (hover to see current wind gust speed)